Blacksburg, VA

2:40 PM EST on December 18, 2017 (GMT -0500)
Virginia Tech

Weather History for KBCB - May, 2013

Change the Weather History Date:

Sunday, May 5, 2013

  Actual Average Record
Temperature  
Mean Temperature 47 °F 56 °F  
Max Temperature 50 °F 69 °F 85 °F (1955)
Min Temperature 43 °F 44 °F 23 °F (1973)
Degree Days  
Heating Degree Days 18 9  
Month to date heating degree days 58 47  
Since 1 July heating degree days 5199 5252  
Cooling Degree Days 0 0  
Month to date cooling degree days 0 0  
Year to date cooling degree days 0 3  
Moisture  
Dew Point 44 °F    
Average Humidity 77    
Maximum Humidity 100    
Minimum Humidity 53    
Precipitation  
Precipitation 0.07 in 0.13 in 1.20 in (1978)
Month to date precipitation 0.09 0.62  
Year to date precipitation 16.13 13.63  
Snow  
Snow 0.00 in - - ()
Month to date snowfall 0.0  
Since 1 July snowfall 27.9  
Snow Depth 0.00 in    
Sea Level Pressure  
Sea Level Pressure 30.08 in    
Wind  
Wind Speed 15 mph (East)    
Max Wind Speed 20 mph    
Max Gust Speed 27 mph    
Visibility 9 miles    
Events Rain    
T = Trace of Precipitation, MM = Missing Value Source: NWS Daily Summary

Daily Weather History Graph

Daily Weather History Graph

Search for Another Location

Airport or City:

Trip Planner

Search our weather history database for the weather conditions in past years. The results will help you decide how hot, cold, wet, or windy it might be!

Date:

Astronomy

May. 05, 2013 Rise Set
Actual Time 6:22 AM EDT 8:14 PM EDT
Civil Twilight 5:54 AM EDT 8:43 PM EDT
Nautical Twilight 5:19 AM EDT 9:17 PM EDT
Astronomical Twilight 4:43 AM EDT 9:54 PM EDT
Moon 3:46 AM EDT (5/5) 4:17 PM EDT (5/5)
Length of Visible Light 14h 49m
Length of Day
13h 52m
Waning Crescent, 18% of the Moon is Illuminated
May 5
Waning Crescent
May 9
New
May 18
First Quarter
May 25
Full
May 31
Last Quarter

Hourly Weather History & Observations

Time (EDT) Temp. Windchill Dew Point Humidity Pressure Visibility Wind Dir Wind Speed Gust Speed Precip Events Conditions
12:15 AM 53.6 °F - 48.2 °F 82% 30.16 in 10.0 mi East 20.7 mph 26.5 mph N/A   Overcast
12:35 AM 53.6 °F - 48.2 °F 82% 30.15 in 10.0 mi East 18.4 mph 23.0 mph N/A   Overcast
12:55 AM 53.6 °F - 48.2 °F 82% 30.15 in 10.0 mi East 17.3 mph 23.0 mph N/A   Overcast
1:15 AM 53.6 °F - 48.2 °F 82% 30.15 in 10.0 mi East 16.1 mph 21.9 mph N/A   Overcast
1:35 AM 51.8 °F - 48.2 °F 88% 30.14 in 10.0 mi East 15.0 mph 23.0 mph N/A   Overcast
1:55 AM 51.8 °F - 48.2 °F 88% 30.14 in 10.0 mi East 16.1 mph 23.0 mph N/A   Overcast
2:15 AM 51.8 °F - 46.4 °F 82% 30.13 in 10.0 mi East 13.8 mph 25.3 mph N/A   Overcast
2:35 AM 50.0 °F - 46.4 °F 87% 30.12 in 10.0 mi East 15.0 mph 20.7 mph N/A   Mostly Cloudy
2:55 AM 48.2 °F - 44.6 °F 87% 30.12 in 10.0 mi East 16.1 mph 25.3 mph N/A   Scattered Clouds
3:15 AM 48.2 °F - 44.6 °F 87% 30.11 in 10.0 mi East 17.3 mph 23.0 mph N/A   Scattered Clouds
3:35 AM 48.2 °F - 44.6 °F 87% 30.10 in 10.0 mi East 13.8 mph 19.6 mph N/A   Mostly Cloudy
3:55 AM 48.2 °F - 42.8 °F 82% 30.10 in 10.0 mi East 15.0 mph 21.9 mph N/A   Overcast
4:15 AM 48.2 °F - 42.8 °F 82% 30.09 in 10.0 mi East 12.7 mph - N/A   Mostly Cloudy
4:35 AM 48.2 °F - 39.2 °F 71% 30.08 in 10.0 mi East 16.1 mph 20.7 mph N/A   Scattered Clouds
4:55 AM 48.2 °F - 39.2 °F 71% 30.08 in 10.0 mi East 16.1 mph 25.3 mph N/A   Clear
5:15 AM 48.2 °F - 37.4 °F 66% 30.08 in 10.0 mi East 18.4 mph 27.6 mph N/A   Clear
5:35 AM 46.4 °F 39.8 °F 35.6 °F 66% 30.07 in 10.0 mi East 16.1 mph 23.0 mph N/A   Clear
5:55 AM 46.4 °F 40.1 °F 30.2 °F 53% 30.09 in 10.0 mi East 15.0 mph 21.9 mph N/A   Clear
6:15 AM 46.4 °F 39.2 °F 30.2 °F 53% 30.08 in 10.0 mi East 18.4 mph 23.0 mph N/A   Clear
6:35 AM 46.4 °F 39.5 °F 30.2 °F 53% 30.09 in 10.0 mi East 17.3 mph 23.0 mph N/A   Clear
6:55 AM 46.4 °F 40.1 °F 30.2 °F 53% 30.09 in 10.0 mi East 15.0 mph 23.0 mph N/A   Clear
7:15 AM 46.4 °F 41.5 °F 32.0 °F 57% 30.09 in 10.0 mi East 10.4 mph - N/A   Clear
7:35 AM 46.4 °F 40.4 °F 33.8 °F 62% 30.10 in 10.0 mi East 13.8 mph 20.7 mph N/A   Clear
7:55 AM 48.2 °F - 33.8 °F 58% 30.10 in 10.0 mi East 16.1 mph 26.5 mph N/A   Clear
8:15 AM 48.2 °F - 35.6 °F 62% 30.09 in 10.0 mi East 17.3 mph 23.0 mph N/A   Clear
8:35 AM 48.2 °F - 35.6 °F 62% 30.10 in 10.0 mi East 13.8 mph 19.6 mph N/A   Clear
8:55 AM 50.0 °F - 37.4 °F 62% 30.10 in 10.0 mi East 16.1 mph 21.9 mph N/A   Clear
9:15 AM 48.2 °F - 35.6 °F 62% 30.11 in 10.0 mi East 21.9 mph 28.8 mph N/A   Clear
9:35 AM 50.0 °F - 35.6 °F 58% 30.11 in 10.0 mi East 19.6 mph 26.5 mph N/A   Clear
9:55 AM 50.0 °F - 35.6 °F 58% 30.10 in 10.0 mi East 19.6 mph 26.5 mph N/A   Clear
10:15 AM 51.8 °F - 37.4 °F 58% 30.11 in 10.0 mi East 18.4 mph 26.5 mph N/A   Clear
10:35 AM 51.8 °F - 39.2 °F 62% 30.11 in 10.0 mi East 17.3 mph 24.2 mph N/A   Scattered Clouds
10:55 AM 51.8 °F - 39.2 °F 62% 30.11 in 10.0 mi East 15.0 mph 25.3 mph N/A   Scattered Clouds
11:15 AM 50.0 °F - 39.2 °F 66% 30.11 in 10.0 mi East 15.0 mph 21.9 mph N/A   Mostly Cloudy
11:35 AM 51.8 °F - 42.8 °F 71% 30.10 in 10.0 mi East 9.2 mph - N/A   Overcast
11:55 AM 51.8 °F - 42.8 °F 71% 30.10 in 10.0 mi East 11.5 mph - N/A   Overcast
12:15 PM 53.6 °F - 44.6 °F 72% 30.09 in 10.0 mi East 11.5 mph - N/A   Overcast
12:35 PM 51.8 °F - 44.6 °F 76% 30.10 in 10.0 mi East 15.0 mph 25.3 mph N/A   Overcast
12:55 PM 51.8 °F - 44.6 °F 76% 30.09 in 10.0 mi East 13.8 mph 18.4 mph N/A   Overcast
1:15 PM 51.8 °F - 44.6 °F 76% 30.09 in 10.0 mi East 16.1 mph - N/A   Overcast
1:35 PM 51.8 °F - 44.6 °F 76% 30.09 in 10.0 mi East 12.7 mph 19.6 mph N/A   Overcast
2:15 PM 51.8 °F - 44.6 °F 76% 30.07 in 10.0 mi ENE 12.7 mph 17.3 mph N/A   Overcast
2:35 PM 51.8 °F - 46.4 °F 82% 30.08 in 10.0 mi East 16.1 mph - N/A   Overcast
2:55 PM 51.8 °F - 46.4 °F 82% 30.08 in 10.0 mi East 11.5 mph - N/A   Overcast
3:15 PM 51.8 °F - 46.4 °F 82% 30.09 in 10.0 mi East 12.7 mph 18.4 mph N/A   Overcast
3:35 PM 51.8 °F - 46.4 °F 82% 30.08 in 10.0 mi East 5.8 mph 19.6 mph N/A   Overcast
3:55 PM 51.8 °F - 46.4 °F 82% 30.08 in 10.0 mi East 15.0 mph - N/A   Overcast
4:15 PM 51.8 °F - 46.4 °F 82% 30.07 in 10.0 mi East 16.1 mph 21.9 mph N/A   Overcast
4:35 PM 51.8 °F - 46.4 °F 82% 30.07 in 10.0 mi East 15.0 mph 27.6 mph N/A   Overcast
4:55 PM 51.8 °F - 48.2 °F 88% 30.06 in 10.0 mi ENE 11.5 mph 21.9 mph N/A   Overcast
5:15 PM 51.8 °F - 48.2 °F 88% 30.06 in 10.0 mi East 17.3 mph 23.0 mph N/A   Overcast
5:35 PM 51.8 °F - 48.2 °F 88% 30.05 in 10.0 mi East 15.0 mph 20.7 mph N/A   Overcast
5:55 PM 51.8 °F - 48.2 °F 88% 30.05 in 5.0 mi East 17.3 mph 23.0 mph N/A Rain Rain
6:15 PM 51.8 °F - 50.0 °F 94% 30.04 in 10.0 mi East 15.0 mph 19.6 mph N/A   Overcast
6:35 PM 51.8 °F - 50.0 °F 94% 30.05 in 7.0 mi ENE 15.0 mph 19.6 mph N/A   Overcast
6:55 PM 51.8 °F - 51.8 °F 100% 30.03 in 7.0 mi East 15.0 mph 24.2 mph N/A   Overcast
7:15 PM 51.8 °F - 51.8 °F 100% 30.02 in 5.0 mi East 12.7 mph 19.6 mph N/A   Overcast
7:35 PM 51.8 °F - 51.8 °F 100% 30.04 in 4.0 mi East 20.7 mph 27.6 mph N/A Rain Light Rain
7:55 PM 51.8 °F - 51.8 °F 100% 30.05 in 2.0 mi East 13.8 mph 19.6 mph N/A Rain Light Rain
8:15 PM 51.8 °F - 51.8 °F 100% 30.04 in 5.0 mi East 16.1 mph 23.0 mph N/A Rain Light Rain
8:35 PM 51.8 °F - 51.8 °F 100% 30.05 in 5.0 mi East 13.8 mph 28.8 mph N/A Rain Light Rain
8:55 PM 51.8 °F - 51.8 °F 100% 30.05 in 4.0 mi East 17.3 mph 24.2 mph N/A Rain Light Rain
9:15 PM 51.8 °F - 51.8 °F 100% 30.04 in 7.0 mi East 16.1 mph 27.6 mph N/A   Light Drizzle
9:35 PM 51.8 °F - 51.8 °F 100% 30.04 in 7.0 mi East 19.6 mph 31.1 mph N/A   Light Drizzle
9:55 PM 51.8 °F - 51.8 °F 100% 30.04 in 7.0 mi East 13.8 mph 26.5 mph N/A   Overcast
10:35 PM 51.8 °F - 51.8 °F 100% 30.05 in 5.0 mi East 16.1 mph 26.5 mph N/A   Drizzle
10:55 PM 51.8 °F - 51.8 °F 100% 30.05 in 7.0 mi East 19.6 mph 25.3 mph 0.01 in Rain Rain
11:15 PM 51.8 °F - 51.8 °F 100% 30.05 in 7.0 mi East 19.6 mph 25.3 mph N/A Rain Rain
11:35 PM 51.8 °F - 51.8 °F 100% 30.05 in 5.0 mi East 18.4 mph 27.6 mph 0.01 in   Drizzle
11:55 PM 51.8 °F - 51.8 °F 100% 30.04 in 5.0 mi East 17.3 mph 25.3 mph 0.01 in Rain Light Rain